Regional Weather Roundup
Issued by NWS

Home | Current Version | Previous Version | Text Only | Print | Product List | Glossary Off
Versions: 1 2 3 4 5 6 7 8 9 10 11 12 13 14 15 16 17 18 19 20 21 22 23 24 25 26 27 28 29 30 31 32 33 34 35 36 37 38 39 40 41 42 43 44 45 46 47 48 49 50

000
ASUS43 KLOT 261009
RWRIL

ILLINOIS REGIONAL WEATHER ROUNDUP
NATIONAL WEATHER SERVICE CHICAGO/ROMEOVILLE IL
500 AM CDT WED APR 26 2017

NOTE: "FAIR" INDICATES FEW OR NO CLOUDS BELOW 12,000 FEET WITH NO
SIGNIFICANT WEATHER AND/OR OBSTRUCTIONS TO VISIBILITY.

* THESE STATIONS ARE NOT UNDER NWS QUALITY CONTROL. THEY ALSO MAY NOT
  REPORT WEATHER SUCH AS PRECIPITATION OR FOG.

ILZ001-002-007-009-015-016-024-261100-
NORTHWEST ILLINOIS

CITY           SKY/WX    TMP DP  RH WIND       PRES   REMARKS
MOLINE         CLOUDY    66  51  58 S12       29.37F
STERLING*      CLOUDY    64  52  64 SE5       29.41F
SAVANNA*       LGT RAIN  61  54  77 E3        29.38F
$$

ILZ003-004-008-010-011-017-018-261100-
NORTH CENTRAL ILLINOIS

CITY           SKY/WX    TMP DP  RH WIND       PRES   REMARKS
ROCKFORD       CLOUDY    64  53  67 S10       29.44F
FREEPORT*      CLOUDY    62  51  66 S8        29.43S
ROCHELLE*      PTCLDY    61  54  76 S12       29.44S
DE KALB*       PTCLDY    61  55  80 SE13      29.46F
PERU*          CLOUDY    62  52  70 S12       29.44F
$$

ILZ005-006-012>014-019>023-261100-
NORTHEAST ILLINOIS

CITY           SKY/WX    TMP DP  RH WIND       PRES   REMARKS
CHICAGO-OHARE  CLOUDY    65  54  67 S12       29.47F
CHICAGO-MIDWAY CLOUDY    66  56  70 S12       29.48F
AURORA         CLOUDY    64  56  75 SE13      29.46F
LANSING*       MOCLDY    65  57  77 S15       29.51S
JOLIET*        CLOUDY    65  57  75 SE7       29.48F
WAUKEGAN       CLOUDY    55  52  89 SE7       29.47F
DUPAGE AIRPORT MOCLDY    64  57  78 S10       29.46F
KANKAKEE*      CLOUDY    63  55  75 SE10      29.51S
WHEELING       CLOUDY    64  56  75 S14       29.48F
MORRIS*        CLOUDY    64  55  74 S13       29.45F
ROMEOVILLE*    CLOUDY    63  58  83 S16       29.48F
NORTHERLY ISL    N/A     65  54  67 S15         N/A
$$

LMZ740>746-261100-
SOUTHERN LAKE MICHIGAN

STATION/POSITION SKY/WX   TEMP    WIND        PRES    VSBY  WAVE
                          AIR SEA DIR/SP/G                  HT/PER
                          (F)     (DEG/KT/KT) (MB)    (MI)  (FT/S)
SOUTHERN BUOY              48 41  120/ 12/ 12 1000.2          1/ 3
HARRISON CRIB              61     160/ 14/ 16   N/A
BURNHAM HARBOR             65     170/ 10/ 16   N/A
CALUMET HARBOR             66     150/  7/ 13  998.5F
BURNS HARBOR               66     150/  9/ 17 1000.3F
MICHIGAN CITY              64     150/ 13/ 16   N/A
ST. JOSEPH                 60 49  170/ 14/ 17 1000.4          2/ 2
$$

ILZ025>027-034>036-040-047-049-050-058-095>099-261100-
WEST-CENTRAL ILLINOIS

CITY           SKY/WX    TMP DP  RH WIND       PRES   REMARKS
QUINCY         TSTM      62  60  93 SW9G21    29.47R FOG
GALESBURG*     CLOUDY    65  52  62 S7        29.38F
MACOMB*        CLOUDY    64  51  64 S8        29.41F
JACKSONVILLE*  CLOUDY    64  52  63 S9        29.44R
PITTSFIELD*    TSTM      66  55  66 S9        29.47R
$$

ILZ028>032-037-038-041>044-048-051>054-059>061-261100-
CENTRAL ILLINOIS

CITY           SKY/WX    TMP DP  RH WIND       PRES   REMARKS
PONTIAC        CLOUDY    65  57  74 S17       29.47F
BLOOMINGTON    CLOUDY    63  55  75 S14       29.48F
DECATUR        CLOUDY    66  56  70 S15       29.49S
PEORIA         CLOUDY    65  52  62 S13       29.43F
LACON*         CLOUDY    63  53  69 S8        29.42F
LINCOLN*       CLOUDY    65  55  71 S6        29.46F
SPRINGFIELD    CLOUDY    66  53  63 S15       29.45F
TAYLORVILLE    MOCLDY    65  54  65 S13       29.48S
$$

ILZ033-039-045-046-055>057-062-063-261100-
EAST-CENTRAL ILLINOIS

CITY           SKY/WX    TMP DP  RH WIND       PRES   REMARKS
CHAMPAIGN      PTCLDY    65  54  67 S17       29.51F
RANTOUL*       MOCLDY    65  57  76 S14       29.51F
MATTOON        CLOUDY    63  57  81 SE13      29.53S
PARIS*         CLOUDY    63  57  81 SE14      29.56F
$$

ILZ079-100>102-261100-
SOUTHWEST ILLINOIS

CITY           SKY/WX    TMP DP  RH WIND       PRES   REMARKS
ALTON          CLOUDY    66  54  64 S15       29.50R
BELLEVILLE     CLOUDY    67  56  67 SE3       29.50R
CAHOKIA*       CLOUDY    70  54  56 SW18G28   29.52R
SPARTA*        CLOUDY    66  55  67 S13       29.54F
$$

ILZ064>066-069>071-074>076-080>082-084>086-088>090-092>094-261100-
SOUTH-CENTRAL ILLINOIS

CITY           SKY/WX    TMP DP  RH WIND       PRES   REMARKS
CARBONDALE     CLOUDY    68  57  68 S15       29.56R
CAIRO*         MOCLDY    65  56  74 S8        29.60R
EFFINGHAM*     CLOUDY    64  57  78 SE6       29.55S
MARION         CLOUDY    66  57  72 S10       29.58R
MT. VERNON     CLOUDY    65  55  70 S8        29.56R
CENTRALIA*     CLOUDY    66  56  71 S14       29.53R
SALEM*         CLOUDY    67  55  63 S13G20    29.53R
METROPOLIS*    CLOUDY    66  56  70 S8        29.62R
$$

ILZ067-068-072-073-078-083-087-091-261100-
SOUTHEAST ILLINOIS

CITY           SKY/WX    TMP DP  RH WIND       PRES   REMARKS
LAWRENCEVILLE  CLOUDY    65  57  75 S15       29.58F
FLORA*         CLOUDY    65  57  75 S13       29.56R
FAIRFIELD*     CLOUDY    65  56  73 S8        29.56R
HARRISBURG*    MOCLDY    63  57  81 S7        29.59R
ROBINSON*      CLOUDY    64  56  75 S13       29.57F
CARMI*         CLOUDY    62  57  84 S8        29.59R
$$

ABBREVIATIONS USED IN REMARKS
   TC - TEMPERATURE IN CELSIUS
  WCI - WIND CHILL INDEX
   HX - HEAT INDEX
  VSB - VISIBILITY
$$




USA.gov is the U.S. government's official web portal to all federal, state and local government web resources and services.